Location: Musselshell
(46.5176°N, 108.0911°W)
Time: 11:49:46
(UTC+00:00)

EO-88 - Pass Details

Date: 05 July 2022
Orbit: 453 x 462 km, 97.3° (Epoch: 10 August)

Event Time Altitude Azimuth Distance (km) Brightness Sun altitude
Exits shadow 04:07:38 12° 141° (SE) 1,523 ? -8.6°
Maximum altitude 04:10:40 40° 72° (ENE) 700 ? -8.9°
Drops below altitude 10° 04:13:59 10° 2° (N) 1,632 ? -9.3°
Sets 04:16:06 0° 355° (N) 2,512 ? -9.5°
